Year,Month,Day,Hour,Minute,Value (Times are PST for temperature in C)
2016,07,10,00,00,14.10
2016,07,10,00,01,14.10
2016,07,10,00,02,14.10
2016,07,10,00,03,14.10
2016,07,10,00,04,14.10
2016,07,10,00,05,14.10
2016,07,10,00,06,14.10
2016,07,10,00,07,14.10
2016,07,10,00,08,14.10
2016,07,10,00,09,14.10
2016,07,10,00,10,14.10
2016,07,10,00,11,14.10
2016,07,10,00,12,14.10
2016,07,10,00,13,14.10
2016,07,10,00,14,14.10
2016,07,10,00,15,14.10
2016,07,10,00,16,14.10
2016,07,10,00,17,14.10
2016,07,10,00,18,14.10
2016,07,10,00,19,14.10
2016,07,10,00,20,14.20
2016,07,10,00,21,14.20
2016,07,10,00,22,14.20
2016,07,10,00,23,14.20
2016,07,10,00,24,14.20
2016,07,10,00,25,14.20
2016,07,10,00,26,14.20
2016,07,10,00,27,14.20
2016,07,10,00,28,14.20
2016,07,10,00,29,14.20
2016,07,10,00,30,14.20
2016,07,10,00,31,14.20
2016,07,10,00,32,14.20
2016,07,10,00,33,14.20
2016,07,10,00,34,14.20
2016,07,10,00,35,14.20
2016,07,10,00,36,14.20
2016,07,10,00,37,14.20
2016,07,10,00,38,14.20
2016,07,10,00,39,14.20
2016,07,10,00,40,14.20
2016,07,10,00,41,14.20
2016,07,10,00,42,14.20
2016,07,10,00,43,14.20
2016,07,10,00,44,14.20
2016,07,10,00,45,14.30
2016,07,10,00,46,14.30
2016,07,10,00,47,14.30
2016,07,10,00,48,14.30
2016,07,10,00,49,14.40
2016,07,10,00,50,14.40
2016,07,10,00,51,14.40
2016,07,10,00,52,14.40
2016,07,10,00,53,14.40
2016,07,10,00,54,14.40
2016,07,10,00,55,14.40
2016,07,10,00,56,14.40
2016,07,10,00,57,14.30
2016,07,10,00,58,14.30
2016,07,10,00,59,14.30
2016,07,10,01,00,14.30
2016,07,10,01,01,14.20
2016,07,10,01,02,14.20
2016,07,10,01,03,14.20
2016,07,10,01,04,14.20
2016,07,10,01,05,14.20
2016,07,10,01,06,14.20
2016,07,10,01,07,14.10
2016,07,10,01,08,14.10
2016,07,10,01,09,14.10
2016,07,10,01,10,14.00
2016,07,10,01,11,14.00
2016,07,10,01,12,13.90
2016,07,10,01,13,13.90
2016,07,10,01,14,13.90
2016,07,10,01,15,13.80
2016,07,10,01,16,13.80
2016,07,10,01,17,13.80
2016,07,10,01,18,13.80
2016,07,10,01,19,13.80
2016,07,10,01,20,13.70
2016,07,10,01,21,13.70
2016,07,10,01,22,13.70
2016,07,10,01,23,13.70
2016,07,10,01,24,13.70
2016,07,10,01,25,13.70
2016,07,10,01,26,13.60
2016,07,10,01,27,13.60
2016,07,10,01,28,13.60
2016,07,10,01,29,13.50
2016,07,10,01,30,13.50
2016,07,10,01,31,13.50
2016,07,10,01,32,13.40
2016,07,10,01,33,13.40
2016,07,10,01,34,13.40
2016,07,10,01,35,13.30
2016,07,10,01,36,13.30
2016,07,10,01,37,13.30
2016,07,10,01,38,13.30
2016,07,10,01,39,13.30
2016,07,10,01,40,13.20
2016,07,10,01,41,13.20
2016,07,10,01,42,13.20
2016,07,10,01,43,13.20
2016,07,10,01,44,13.20
2016,07,10,01,45,13.20
2016,07,10,01,46,13.20
2016,07,10,01,47,13.20
2016,07,10,01,48,13.30
2016,07,10,01,49,13.30
2016,07,10,01,50,13.30
2016,07,10,01,51,13.40
2016,07,10,01,52,13.40
2016,07,10,01,53,13.50
2016,07,10,01,54,13.50
2016,07,10,01,55,13.60
2016,07,10,01,56,13.60
2016,07,10,01,57,13.60
2016,07,10,01,58,13.70
2016,07,10,01,59,13.70
2016,07,10,02,00,13.70
2016,07,10,02,01,13.70
2016,07,10,02,02,13.80
2016,07,10,02,03,13.80
2016,07,10,02,04,13.80
2016,07,10,02,05,13.80
2016,07,10,02,06,13.80
2016,07,10,02,07,13.80
2016,07,10,02,08,13.80
2016,07,10,02,09,13.80
2016,07,10,02,10,13.70
2016,07,10,02,11,13.70
2016,07,10,02,12,13.70
2016,07,10,02,13,13.70
2016,07,10,02,14,13.70
2016,07,10,02,15,13.70
2016,07,10,02,16,13.70
2016,07,10,02,17,13.70
2016,07,10,02,18,13.70
2016,07,10,02,19,13.70
2016,07,10,02,20,13.80
2016,07,10,02,21,13.80
2016,07,10,02,22,13.80
2016,07,10,02,23,13.80
2016,07,10,02,24,13.80
2016,07,10,02,25,13.70
2016,07,10,02,26,13.70
2016,07,10,02,27,13.70
2016,07,10,02,28,13.60
2016,07,10,02,29,13.60
2016,07,10,02,30,13.50
2016,07,10,02,31,13.50
2016,07,10,02,32,13.40
2016,07,10,02,33,13.40
2016,07,10,02,34,13.30
2016,07,10,02,35,13.30
2016,07,10,02,36,13.20
2016,07,10,02,37,13.20
2016,07,10,02,38,13.20
2016,07,10,02,39,13.20
2016,07,10,02,40,13.20
2016,07,10,02,41,13.20
2016,07,10,02,42,13.30
2016,07,10,02,43,13.30
2016,07,10,02,44,13.30
2016,07,10,02,45,13.40
2016,07,10,02,46,13.50
2016,07,10,02,47,13.60
2016,07,10,02,48,13.60
2016,07,10,02,49,13.70
2016,07,10,02,50,13.80
2016,07,10,02,51,13.80
2016,07,10,02,52,13.90
2016,07,10,02,53,14.00
2016,07,10,02,54,14.00
2016,07,10,02,55,14.10
2016,07,10,02,56,14.10
2016,07,10,02,57,14.10
2016,07,10,02,58,14.20
2016,07,10,02,59,14.20
2016,07,10,03,00,14.20
2016,07,10,03,01,14.20
2016,07,10,03,02,14.20
2016,07,10,03,03,14.20
2016,07,10,03,04,14.20
2016,07,10,03,05,14.20
2016,07,10,03,06,14.20
2016,07,10,03,07,14.20
2016,07,10,03,08,14.20
2016,07,10,03,09,14.20
2016,07,10,03,10,14.20
2016,07,10,03,11,14.20
2016,07,10,03,12,14.20
2016,07,10,03,13,14.20
2016,07,10,03,14,14.20
2016,07,10,03,15,14.20
2016,07,10,03,16,14.20
2016,07,10,03,17,14.20
2016,07,10,03,18,14.20
2016,07,10,03,19,14.20
2016,07,10,03,20,14.20
2016,07,10,03,21,14.30
2016,07,10,03,22,14.30
2016,07,10,03,23,14.30
2016,07,10,03,24,14.30
2016,07,10,03,25,14.30
2016,07,10,03,26,14.30
2016,07,10,03,27,14.20
2016,07,10,03,28,14.20
2016,07,10,03,29,14.20
2016,07,10,03,30,14.20
2016,07,10,03,31,14.30
2016,07,10,03,32,14.30
2016,07,10,03,33,14.30
2016,07,10,03,34,14.30
2016,07,10,03,35,14.40
2016,07,10,03,36,14.40
2016,07,10,03,37,14.40
2016,07,10,03,38,14.40
2016,07,10,03,39,14.40
2016,07,10,03,40,14.40
2016,07,10,03,41,14.40
2016,07,10,03,42,14.40
2016,07,10,03,43,14.40
2016,07,10,03,44,14.40
2016,07,10,03,45,14.40
2016,07,10,03,46,14.40
2016,07,10,03,47,14.40
2016,07,10,03,48,14.40
2016,07,10,03,49,14.30
2016,07,10,03,50,14.30
2016,07,10,03,51,14.30
2016,07,10,03,52,14.30
2016,07,10,03,53,14.30
2016,07,10,03,54,14.30
2016,07,10,03,55,14.30
2016,07,10,03,56,14.20
2016,07,10,03,57,14.20
2016,07,10,03,58,14.10
2016,07,10,03,59,14.10
2016,07,10,04,00,14.00
2016,07,10,04,01,14.00
2016,07,10,04,02,13.90
2016,07,10,04,03,13.90
2016,07,10,04,04,13.80
2016,07,10,04,05,13.80
2016,07,10,04,06,13.80
2016,07,10,04,07,13.70
2016,07,10,04,08,13.70
2016,07,10,04,09,13.70
2016,07,10,04,10,13.60
2016,07,10,04,11,13.60
2016,07,10,04,12,13.60
2016,07,10,04,13,13.60
2016,07,10,04,14,13.60
2016,07,10,04,15,13.60
2016,07,10,04,16,13.60
2016,07,10,04,17,13.60
2016,07,10,04,18,13.50
2016,07,10,04,19,13.50
2016,07,10,04,20,13.50
2016,07,10,04,21,13.50
2016,07,10,04,22,13.50
2016,07,10,04,23,13.50
2016,07,10,04,24,13.50
2016,07,10,04,25,13.50
2016,07,10,04,26,13.50
2016,07,10,04,27,13.50
2016,07,10,04,28,13.50
2016,07,10,04,29,13.50
2016,07,10,04,30,13.50
2016,07,10,04,31,13.50
2016,07,10,04,32,13.50
2016,07,10,04,33,13.50
2016,07,10,04,34,13.50
2016,07,10,04,35,13.60
2016,07,10,04,36,13.60
2016,07,10,04,37,13.60
2016,07,10,04,38,13.60
2016,07,10,04,39,13.60
2016,07,10,04,40,13.70
2016,07,10,04,41,13.70
2016,07,10,04,42,13.70
2016,07,10,04,43,13.80
2016,07,10,04,44,13.80
2016,07,10,04,45,13.80
2016,07,10,04,46,13.80
2016,07,10,04,47,13.90
2016,07,10,04,48,13.90
2016,07,10,04,49,13.90
2016,07,10,04,50,14.00
2016,07,10,04,51,14.00
2016,07,10,04,52,14.00
2016,07,10,04,53,14.10
2016,07,10,04,54,14.10
2016,07,10,04,55,14.10
2016,07,10,04,56,14.20
2016,07,10,04,57,14.20
2016,07,10,04,58,14.20
2016,07,10,04,59,14.20
2016,07,10,05,00,14.30
2016,07,10,05,01,14.30
2016,07,10,05,02,14.30
2016,07,10,05,03,14.30
2016,07,10,05,04,14.30
2016,07,10,05,05,14.30
2016,07,10,05,06,14.30
2016,07,10,05,07,14.30
2016,07,10,05,08,14.30
2016,07,10,05,09,14.30
2016,07,10,05,10,14.40
2016,07,10,05,11,14.40
2016,07,10,05,12,14.40
2016,07,10,05,13,14.40
2016,07,10,05,14,14.40
2016,07,10,05,15,14.40
2016,07,10,05,16,14.40
2016,07,10,05,17,14.40
2016,07,10,05,18,14.40
2016,07,10,05,19,14.40
2016,07,10,05,20,14.40
2016,07,10,05,21,14.40
2016,07,10,05,22,14.40
2016,07,10,05,23,14.40
2016,07,10,05,24,14.40
2016,07,10,05,25,14.40
2016,07,10,05,26,14.40
2016,07,10,05,27,14.40
2016,07,10,05,28,14.40
2016,07,10,05,29,14.40
2016,07,10,05,30,14.40
2016,07,10,05,31,14.40
2016,07,10,05,32,14.40
2016,07,10,05,33,14.40
2016,07,10,05,34,14.40
2016,07,10,05,35,14.40
2016,07,10,05,36,14.40
2016,07,10,05,37,14.40
2016,07,10,05,38,14.40
2016,07,10,05,39,14.40
2016,07,10,05,40,14.40
2016,07,10,05,41,14.40
2016,07,10,05,42,14.40
2016,07,10,05,43,14.40
2016,07,10,05,44,14.40
2016,07,10,05,45,14.40
2016,07,10,05,46,14.40
2016,07,10,05,47,14.40
2016,07,10,05,48,14.40
2016,07,10,05,49,14.40
2016,07,10,05,50,14.40
2016,07,10,05,51,14.30
2016,07,10,05,52,14.30
2016,07,10,05,53,14.30
2016,07,10,05,54,14.30
2016,07,10,05,55,14.20
2016,07,10,05,56,14.20
2016,07,10,05,57,14.20
2016,07,10,05,58,14.10
2016,07,10,05,59,14.10
2016,07,10,06,00,14.10
2016,07,10,06,01,14.10
2016,07,10,06,02,14.00
2016,07,10,06,03,14.10
2016,07,10,06,04,14.10
2016,07,10,06,05,14.10
2016,07,10,06,06,14.10
2016,07,10,06,07,14.20
2016,07,10,06,08,14.20
2016,07,10,06,09,14.20
2016,07,10,06,10,14.30
2016,07,10,06,11,14.30
2016,07,10,06,12,14.30
2016,07,10,06,13,14.40
2016,07,10,06,14,14.40
2016,07,10,06,15,14.40
2016,07,10,06,16,14.40
2016,07,10,06,17,14.40
2016,07,10,06,18,14.40
2016,07,10,06,19,14.40
2016,07,10,06,20,14.40
2016,07,10,06,21,14.40
2016,07,10,06,22,14.50
2016,07,10,06,23,14.40
2016,07,10,06,24,14.40
2016,07,10,06,25,14.40
2016,07,10,06,26,14.40
2016,07,10,06,27,14.40
2016,07,10,06,28,14.40
2016,07,10,06,29,14.40
2016,07,10,06,30,14.40
2016,07,10,06,31,14.40
2016,07,10,06,32,14.40
2016,07,10,06,33,14.40
2016,07,10,06,34,14.40
2016,07,10,06,35,14.50
2016,07,10,06,36,14.50
2016,07,10,06,37,14.50
2016,07,10,06,38,14.60
2016,07,10,06,39,14.60
2016,07,10,06,40,14.60
2016,07,10,06,41,14.60
2016,07,10,06,42,14.60
2016,07,10,06,43,14.60
2016,07,10,06,44,14.60
2016,07,10,06,45,14.60
2016,07,10,06,46,14.60
2016,07,10,06,47,14.60
2016,07,10,06,48,14.60
2016,07,10,06,49,14.60
2016,07,10,06,50,14.70
2016,07,10,06,51,14.70
2016,07,10,06,52,14.70
2016,07,10,06,53,14.70
2016,07,10,06,54,14.70
2016,07,10,06,55,14.70
2016,07,10,06,56,14.70
2016,07,10,06,57,14.80
2016,07,10,06,58,14.80
2016,07,10,06,59,14.90
2016,07,10,07,00,14.90
2016,07,10,07,01,15.00
2016,07,10,07,02,15.00
2016,07,10,07,03,15.00
2016,07,10,07,04,15.00
2016,07,10,07,05,15.00
2016,07,10,07,06,15.00
2016,07,10,07,07,15.00
2016,07,10,07,08,15.00
2016,07,10,07,09,15.00
2016,07,10,07,10,15.00
2016,07,10,07,11,15.00
2016,07,10,07,12,15.10
2016,07,10,07,13,15.10
2016,07,10,07,14,15.10
2016,07,10,07,15,15.20
2016,07,10,07,16,15.20
2016,07,10,07,17,15.30
2016,07,10,07,18,15.30
2016,07,10,07,19,15.40
2016,07,10,07,20,15.40
2016,07,10,07,21,15.50
2016,07,10,07,22,15.50
2016,07,10,07,23,15.50
2016,07,10,07,24,15.60
2016,07,10,07,25,15.60
2016,07,10,07,26,15.60
2016,07,10,07,27,15.70
2016,07,10,07,28,15.70
2016,07,10,07,29,15.70
2016,07,10,07,30,15.80
2016,07,10,07,31,15.80
2016,07,10,07,32,15.80
2016,07,10,07,33,15.90
2016,07,10,07,34,15.90
2016,07,10,07,35,15.90
2016,07,10,07,36,16.00
2016,07,10,07,37,16.00
2016,07,10,07,38,16.00
2016,07,10,07,39,16.10
2016,07,10,07,40,16.10
2016,07,10,07,41,16.10
2016,07,10,07,42,16.10
2016,07,10,07,43,16.10
2016,07,10,07,44,16.10
2016,07,10,07,45,16.10
2016,07,10,07,46,16.10
2016,07,10,07,47,16.20
2016,07,10,07,48,16.20
2016,07,10,07,49,16.20
2016,07,10,07,50,16.20
2016,07,10,07,51,16.30
2016,07,10,07,52,16.30
2016,07,10,07,53,16.30
2016,07,10,07,54,16.30
2016,07,10,07,55,16.30
2016,07,10,07,56,16.30
2016,07,10,07,57,16.30
2016,07,10,07,58,16.40
2016,07,10,07,59,16.40
2016,07,10,08,00,16.40
2016,07,10,08,01,16.40
2016,07,10,08,02,16.40
2016,07,10,08,03,16.40
2016,07,10,08,04,16.40
2016,07,10,08,05,16.30
2016,07,10,08,06,16.30
2016,07,10,08,07,16.30
2016,07,10,08,08,16.20
2016,07,10,08,09,16.20
2016,07,10,08,10,16.20
2016,07,10,08,11,16.20
2016,07,10,08,12,16.30
2016,07,10,08,13,16.30
2016,07,10,08,14,16.30
2016,07,10,08,15,16.30
2016,07,10,08,16,16.30
2016,07,10,08,17,16.40
2016,07,10,08,18,16.40
2016,07,10,08,19,16.50
2016,07,10,08,20,16.50
2016,07,10,08,21,16.50
2016,07,10,08,22,16.60
2016,07,10,08,23,16.50
2016,07,10,08,24,16.50
2016,07,10,08,25,16.50
2016,07,10,08,26,16.50
2016,07,10,08,27,16.60
2016,07,10,08,28,16.60
2016,07,10,08,29,16.60
2016,07,10,08,30,16.60
2016,07,10,08,31,16.50
2016,07,10,08,32,16.50
2016,07,10,08,33,16.40
2016,07,10,08,34,16.40
2016,07,10,08,35,16.40
2016,07,10,08,36,16.40
2016,07,10,08,37,16.40
2016,07,10,08,38,16.40
2016,07,10,08,39,16.40
2016,07,10,08,40,16.40
2016,07,10,08,41,16.40
2016,07,10,08,42,16.30
2016,07,10,08,43,16.20
2016,07,10,08,44,16.10
2016,07,10,08,45,16.00
2016,07,10,08,46,15.90
2016,07,10,08,47,15.90
2016,07,10,08,48,15.90
2016,07,10,08,49,15.80
2016,07,10,08,50,15.80
2016,07,10,08,51,15.80
2016,07,10,08,52,15.80
2016,07,10,08,53,15.80
2016,07,10,08,54,15.90
2016,07,10,08,55,15.90
2016,07,10,08,56,15.90
2016,07,10,08,57,16.00
2016,07,10,08,58,16.00
2016,07,10,08,59,16.10
2016,07,10,09,00,16.10
2016,07,10,09,01,16.10
2016,07,10,09,02,16.10
2016,07,10,09,03,16.10
2016,07,10,09,04,16.10
2016,07,10,09,05,16.10
2016,07,10,09,06,16.10
2016,07,10,09,07,16.10
2016,07,10,09,08,16.10
2016,07,10,09,09,16.10
2016,07,10,09,10,16.00
2016,07,10,09,11,16.00
2016,07,10,09,12,15.90
2016,07,10,09,13,15.90
2016,07,10,09,14,15.90
2016,07,10,09,15,15.80
2016,07,10,09,16,15.90
2016,07,10,09,17,15.90
2016,07,10,09,18,15.90
2016,07,10,09,19,15.90
2016,07,10,09,20,15.90
2016,07,10,09,21,15.80
2016,07,10,09,22,15.80
2016,07,10,09,23,15.80
2016,07,10,09,24,15.80
2016,07,10,09,25,15.80
2016,07,10,09,26,15.70
2016,07,10,09,27,15.70
2016,07,10,09,28,15.70
2016,07,10,09,29,15.70
2016,07,10,09,30,15.70
2016,07,10,09,31,15.70
2016,07,10,09,32,15.70
2016,07,10,09,33,15.70
2016,07,10,09,34,15.60
2016,07,10,09,35,15.60
2016,07,10,09,36,15.60
2016,07,10,09,37,15.60
2016,07,10,09,38,15.60
2016,07,10,09,39,15.60
2016,07,10,09,40,15.70
2016,07,10,09,41,15.70
2016,07,10,09,42,15.70
2016,07,10,09,43,15.70
2016,07,10,09,44,15.70
2016,07,10,09,45,15.70
2016,07,10,09,46,15.70
2016,07,10,09,47,15.70
2016,07,10,09,48,15.80
2016,07,10,09,49,15.80
2016,07,10,09,50,15.80
2016,07,10,09,51,15.80
2016,07,10,09,52,15.80
2016,07,10,09,53,15.90
2016,07,10,09,54,15.90
2016,07,10,09,55,15.90
2016,07,10,09,56,15.90
2016,07,10,09,57,16.00
2016,07,10,09,58,16.00
2016,07,10,09,59,16.00
2016,07,10,10,00,16.10
2016,07,10,10,01,16.10
2016,07,10,10,02,16.10
2016,07,10,10,03,16.10
2016,07,10,10,04,16.10
2016,07,10,10,05,16.10
2016,07,10,10,06,16.00
2016,07,10,10,07,16.00
2016,07,10,10,08,16.10
2016,07,10,10,09,16.20
2016,07,10,10,10,16.20
2016,07,10,10,11,16.20
2016,07,10,10,12,16.20
2016,07,10,10,13,16.20
2016,07,10,10,14,16.30
2016,07,10,10,15,16.30
2016,07,10,10,16,16.30
2016,07,10,10,17,16.30
2016,07,10,10,18,16.30
2016,07,10,10,19,16.30
2016,07,10,10,20,16.30
2016,07,10,10,21,16.30
2016,07,10,10,22,16.40
2016,07,10,10,23,16.50
2016,07,10,10,24,16.50
2016,07,10,10,25,16.40
2016,07,10,10,26,16.40
2016,07,10,10,27,16.30
2016,07,10,10,28,16.30
2016,07,10,10,29,16.30
2016,07,10,10,30,16.30
2016,07,10,10,31,16.30
2016,07,10,10,32,16.30
2016,07,10,10,33,16.30
2016,07,10,10,34,16.30
2016,07,10,10,35,16.30
2016,07,10,10,36,16.40
2016,07,10,10,37,16.40
2016,07,10,10,38,16.40
2016,07,10,10,39,16.50
2016,07,10,10,40,16.60
2016,07,10,10,41,16.60
2016,07,10,10,42,16.70
2016,07,10,10,43,16.70
2016,07,10,10,44,16.80
2016,07,10,10,45,16.80
2016,07,10,10,46,16.80
2016,07,10,10,47,16.80
2016,07,10,10,48,16.80
2016,07,10,10,49,16.80
2016,07,10,10,50,16.80
2016,07,10,10,51,16.90
2016,07,10,10,52,16.90
2016,07,10,10,53,16.80
2016,07,10,10,54,16.80
2016,07,10,10,55,16.80
2016,07,10,10,56,16.80
2016,07,10,10,57,16.80
2016,07,10,10,58,16.80
2016,07,10,10,59,16.80
2016,07,10,11,00,16.80
2016,07,10,11,01,16.80
2016,07,10,11,02,16.80
2016,07,10,11,03,16.80
2016,07,10,11,04,16.80
2016,07,10,11,05,16.90
2016,07,10,11,06,16.90
2016,07,10,11,07,16.80
2016,07,10,11,08,16.80
2016,07,10,11,09,16.80
2016,07,10,11,10,16.80
2016,07,10,11,11,16.80
2016,07,10,11,12,16.90
2016,07,10,11,13,16.90
2016,07,10,11,14,16.90
2016,07,10,11,15,16.80
2016,07,10,11,16,16.80
2016,07,10,11,17,16.70
2016,07,10,11,18,16.70
2016,07,10,11,19,16.70
2016,07,10,11,20,16.70
2016,07,10,11,21,16.70
2016,07,10,11,22,16.70
2016,07,10,11,23,16.70
2016,07,10,11,24,16.80
2016,07,10,11,25,16.90
2016,07,10,11,26,17.00
2016,07,10,11,27,17.00
2016,07,10,11,28,17.10
2016,07,10,11,29,17.10
2016,07,10,11,30,17.10
2016,07,10,11,31,17.20
2016,07,10,11,32,17.20
2016,07,10,11,33,17.20
2016,07,10,11,34,17.20
2016,07,10,11,35,17.30
2016,07,10,11,36,17.40
2016,07,10,11,37,17.50
2016,07,10,11,38,17.60
2016,07,10,11,39,17.70
2016,07,10,11,40,17.70
2016,07,10,11,41,17.80
2016,07,10,11,42,17.70
2016,07,10,11,43,17.70
2016,07,10,11,44,17.70
2016,07,10,11,45,17.60
2016,07,10,11,46,17.50
2016,07,10,11,47,17.40
2016,07,10,11,48,17.30
2016,07,10,11,49,17.30
2016,07,10,11,50,17.30
2016,07,10,11,51,17.30
2016,07,10,11,52,17.30
2016,07,10,11,53,17.40
2016,07,10,11,54,17.40
2016,07,10,11,55,17.40
2016,07,10,11,56,17.40
2016,07,10,11,57,17.40
2016,07,10,11,58,17.30
2016,07,10,11,59,17.20
2016,07,10,12,00,17.20
2016,07,10,12,01,17.20
2016,07,10,12,02,17.20
2016,07,10,12,03,17.10
2016,07,10,12,04,17.20
2016,07,10,12,05,17.10
2016,07,10,12,06,17.10
2016,07,10,12,07,17.00
2016,07,10,12,08,17.00
2016,07,10,12,09,17.00
2016,07,10,12,10,17.00
2016,07,10,12,11,17.00
2016,07,10,12,12,17.00
2016,07,10,12,13,17.00
2016,07,10,12,14,17.00
2016,07,10,12,15,17.00
2016,07,10,12,16,17.10
2016,07,10,12,17,17.10
2016,07,10,12,18,17.10
2016,07,10,12,19,17.20
2016,07,10,12,20,17.20
2016,07,10,12,21,17.20
2016,07,10,12,22,17.20
2016,07,10,12,23,17.30
2016,07,10,12,24,17.40
2016,07,10,12,25,17.50
2016,07,10,12,26,17.50
2016,07,10,12,27,17.50
2016,07,10,12,28,17.50
2016,07,10,12,29,17.50
2016,07,10,12,30,17.60
2016,07,10,12,31,17.60
2016,07,10,12,32,17.70
2016,07,10,12,33,17.80
2016,07,10,12,34,17.80
2016,07,10,12,35,17.80
2016,07,10,12,36,17.80
2016,07,10,12,37,17.80
2016,07,10,12,38,17.80
2016,07,10,12,39,17.80
2016,07,10,12,40,17.80
2016,07,10,12,41,17.80
2016,07,10,12,42,17.70
2016,07,10,12,43,17.60
2016,07,10,12,44,17.60
2016,07,10,12,45,17.60
2016,07,10,12,46,17.60
2016,07,10,12,47,17.60
2016,07,10,12,48,17.60
2016,07,10,12,49,17.70
2016,07,10,12,50,17.70
2016,07,10,12,51,17.70
2016,07,10,12,52,17.70
2016,07,10,12,53,17.80
2016,07,10,12,54,17.80
2016,07,10,12,55,17.80
2016,07,10,12,56,17.80
2016,07,10,12,57,17.80
2016,07,10,12,58,17.90
2016,07,10,12,59,17.90
2016,07,10,13,00,17.90
2016,07,10,13,01,17.90
2016,07,10,13,02,17.90
2016,07,10,13,03,17.90
2016,07,10,13,04,17.90
2016,07,10,13,05,18.00
2016,07,10,13,06,18.00
2016,07,10,13,07,18.10
2016,07,10,13,08,18.10
2016,07,10,13,09,18.10
2016,07,10,13,10,18.10
2016,07,10,13,11,18.10
2016,07,10,13,12,18.10
2016,07,10,13,13,18.20
2016,07,10,13,14,18.20
2016,07,10,13,15,18.20
2016,07,10,13,16,18.30
2016,07,10,13,17,18.40
2016,07,10,13,18,18.50
2016,07,10,13,19,18.60
2016,07,10,13,20,18.80
2016,07,10,13,21,18.80
2016,07,10,13,22,18.80
2016,07,10,13,23,18.70
2016,07,10,13,24,18.60
2016,07,10,13,25,18.60
2016,07,10,13,26,18.60
2016,07,10,13,27,18.60
2016,07,10,13,28,18.60
2016,07,10,13,29,18.70
2016,07,10,13,30,18.80
2016,07,10,13,31,18.90
2016,07,10,13,32,18.90
2016,07,10,13,33,19.00
2016,07,10,13,34,19.10
2016,07,10,13,35,19.10
2016,07,10,13,36,19.20
2016,07,10,13,37,19.30
2016,07,10,13,38,19.30
2016,07,10,13,39,19.40
2016,07,10,13,40,19.60
2016,07,10,13,41,19.70
2016,07,10,13,42,19.70
2016,07,10,13,43,19.70
2016,07,10,13,44,19.70
2016,07,10,13,45,19.70
2016,07,10,13,46,19.60
2016,07,10,13,47,19.60
2016,07,10,13,48,19.50
2016,07,10,13,49,19.40
2016,07,10,13,50,19.40
2016,07,10,13,51,19.30
2016,07,10,13,52,19.20
2016,07,10,13,53,19.30
2016,07,10,13,54,19.20
2016,07,10,13,55,19.30
2016,07,10,13,56,19.30
2016,07,10,13,57,19.30
2016,07,10,13,58,19.40
2016,07,10,13,59,19.40
2016,07,10,14,00,19.50
2016,07,10,14,01,19.60
2016,07,10,14,02,19.60
2016,07,10,14,03,19.70
2016,07,10,14,04,19.70
2016,07,10,14,05,19.70
2016,07,10,14,06,19.70
2016,07,10,14,07,19.80
2016,07,10,14,08,19.90
2016,07,10,14,09,19.90
2016,07,10,14,10,19.90
2016,07,10,14,11,19.90
2016,07,10,14,12,19.90
2016,07,10,14,13,19.90
2016,07,10,14,14,19.80
2016,07,10,14,15,19.90
2016,07,10,14,16,19.90
2016,07,10,14,17,19.90
2016,07,10,14,18,19.80
2016,07,10,14,19,19.80
2016,07,10,14,20,19.80
2016,07,10,14,21,19.80
2016,07,10,14,22,19.80
2016,07,10,14,23,19.80
2016,07,10,14,24,19.80
2016,07,10,14,25,19.80
2016,07,10,14,26,19.80
2016,07,10,14,27,19.80
2016,07,10,14,28,19.80
2016,07,10,14,29,19.80
2016,07,10,14,30,19.80
2016,07,10,14,31,19.90
2016,07,10,14,32,19.90
2016,07,10,14,33,19.90
2016,07,10,14,34,19.90
2016,07,10,14,35,19.90
2016,07,10,14,36,19.90
2016,07,10,14,37,20.00
2016,07,10,14,38,20.20
2016,07,10,14,39,20.20
2016,07,10,14,40,20.30
2016,07,10,14,41,20.30
2016,07,10,14,42,20.20
2016,07,10,14,43,20.20
2016,07,10,14,44,20.30
2016,07,10,14,45,20.40
2016,07,10,14,46,20.30
2016,07,10,14,47,20.20
2016,07,10,14,48,20.20
2016,07,10,14,49,20.20
2016,07,10,14,50,20.20
2016,07,10,14,51,20.10
2016,07,10,14,52,20.10
2016,07,10,14,53,20.10
2016,07,10,14,54,20.10
2016,07,10,14,55,20.20
2016,07,10,14,56,20.20
2016,07,10,14,57,20.20
2016,07,10,14,58,20.30
2016,07,10,14,59,20.40
2016,07,10,15,00,20.60
2016,07,10,15,01,20.60
2016,07,10,15,02,20.60
2016,07,10,15,03,20.60
2016,07,10,15,04,20.60
2016,07,10,15,05,20.60
2016,07,10,15,06,20.70
2016,07,10,15,07,20.70
2016,07,10,15,08,20.70
2016,07,10,15,09,20.80
2016,07,10,15,10,20.80
2016,07,10,15,11,20.90
2016,07,10,15,12,20.90
2016,07,10,15,13,20.80
2016,07,10,15,14,20.80
2016,07,10,15,15,20.80
2016,07,10,15,16,20.80
2016,07,10,15,17,20.80
2016,07,10,15,18,20.80
2016,07,10,15,19,20.80
2016,07,10,15,20,20.80
2016,07,10,15,21,20.90
2016,07,10,15,22,21.00
2016,07,10,15,23,20.90
2016,07,10,15,24,20.90
2016,07,10,15,25,20.80
2016,07,10,15,26,20.70
2016,07,10,15,27,20.60
2016,07,10,15,28,20.60
2016,07,10,15,29,20.50
2016,07,10,15,30,20.40
2016,07,10,15,31,20.40
2016,07,10,15,32,20.40
2016,07,10,15,33,20.40
2016,07,10,15,34,20.40
2016,07,10,15,35,20.40
2016,07,10,15,36,20.50
2016,07,10,15,37,20.70
2016,07,10,15,38,20.70
2016,07,10,15,39,20.60
2016,07,10,15,40,20.40
2016,07,10,15,41,20.20
2016,07,10,15,42,20.00
2016,07,10,15,43,19.90
2016,07,10,15,44,19.80
2016,07,10,15,45,19.80
2016,07,10,15,46,19.90
2016,07,10,15,47,19.90
2016,07,10,15,48,19.80
2016,07,10,15,49,19.80
2016,07,10,15,50,19.90
2016,07,10,15,51,19.90
2016,07,10,15,52,19.90
2016,07,10,15,53,20.00
2016,07,10,15,54,20.00
2016,07,10,15,55,20.10
2016,07,10,15,56,20.10
2016,07,10,15,57,20.10
2016,07,10,15,58,20.10
2016,07,10,15,59,20.20
2016,07,10,16,00,20.30
2016,07,10,16,01,20.40
2016,07,10,16,02,20.50
2016,07,10,16,03,20.60
2016,07,10,16,04,20.70
2016,07,10,16,05,20.80
2016,07,10,16,06,20.80
2016,07,10,16,07,20.80
2016,07,10,16,08,20.80
2016,07,10,16,09,20.90
2016,07,10,16,10,20.90
2016,07,10,16,11,20.90
2016,07,10,16,12,20.90
2016,07,10,16,13,20.90
2016,07,10,16,14,20.80
2016,07,10,16,15,20.80
2016,07,10,16,16,20.80
2016,07,10,16,17,20.80
2016,07,10,16,18,20.80
2016,07,10,16,19,20.90
2016,07,10,16,20,20.90
2016,07,10,16,21,20.90
2016,07,10,16,22,20.90
2016,07,10,16,23,21.00
2016,07,10,16,24,21.00
2016,07,10,16,25,21.00
2016,07,10,16,26,21.00
2016,07,10,16,27,20.90
2016,07,10,16,28,20.90
2016,07,10,16,29,20.80
2016,07,10,16,30,20.80
2016,07,10,16,31,20.70
2016,07,10,16,32,20.60
2016,07,10,16,33,20.60
2016,07,10,16,34,20.60
2016,07,10,16,35,20.50
2016,07,10,16,36,20.50
2016,07,10,16,37,20.50
2016,07,10,16,38,20.50
2016,07,10,16,39,20.50
2016,07,10,16,40,20.50
2016,07,10,16,41,20.50
2016,07,10,16,42,20.50
2016,07,10,16,43,20.40
2016,07,10,16,44,20.30
2016,07,10,16,45,20.30
2016,07,10,16,46,20.30
2016,07,10,16,47,20.30
2016,07,10,16,48,20.30
2016,07,10,16,49,20.30
2016,07,10,16,50,20.30
2016,07,10,16,51,20.40
2016,07,10,16,52,20.50
2016,07,10,16,53,20.70
2016,07,10,16,54,20.80
2016,07,10,16,55,20.80
2016,07,10,16,56,20.80
2016,07,10,16,57,20.80
2016,07,10,16,58,20.80
2016,07,10,16,59,20.90
2016,07,10,17,00,20.90
2016,07,10,17,01,21.00
2016,07,10,17,02,21.00
2016,07,10,17,03,20.90
2016,07,10,17,04,20.90
2016,07,10,17,05,20.90
2016,07,10,17,06,20.90
2016,07,10,17,07,20.90
2016,07,10,17,08,20.90
2016,07,10,17,09,20.90
2016,07,10,17,10,20.90
2016,07,10,17,11,20.90
2016,07,10,17,12,20.80
2016,07,10,17,13,20.80
2016,07,10,17,14,20.80
2016,07,10,17,15,20.70
2016,07,10,17,16,20.60
2016,07,10,17,17,20.50
2016,07,10,17,18,20.50
2016,07,10,17,19,20.50